Flag for Belgium Weather past 2 weeks in Kortrijk, Belgium

Now
88 °F

Passing clouds.


Feels Like: 85 °F
Forecast: 58 / 71 °F
Wind: 8 mph from Southwest

Location: Lille Airport

Current Time: Aug 3, 2015 at 7:13:28 PM

Latest Report: Aug 3, 2015 at 6:30 PM


Visibility: N/A

Pressure: 29.86 "Hg

Humidity: 27%

Dew point: 50 °F

Location of KortrijkLocation

Historic Weather in Kortrijk — Graph

°F

Kortrijk temperature yesterday

Maximum temperature yesterday: 81 °F (at 5:00 PM)
Minimum temperature yesterday: 48 °F (at 5:00 AM)
Average temperature yesterday: 66 °F

Past Weeks' High & Low Weather Summary

 TemperatureHumidityPressure
High88 °F (Aug 3, 6:00 PM)100% (Jul 20, 8:30 AM)30.15 "Hg (Jul 20, 8:30 AM)
Low45 °F (Jul 31, 6:30 AM)23% (Aug 2, 4:30 PM)29.50 "Hg (Jul 25, 3:00 AM)
Average64 °F67%29.91 "Hg
* Reported Jul 19 6:00 PM — Aug 3 6:00 PM, Kortrijk, Weather by CustomWeather, © 2015

Note: Actual official high and low records may vary slightly from our data, if they occured in-between our weather recording intervals... More about our weather records

Advertising

Kortrijk weather history for previous 24 hours

 ConditionsComfort  
Time TempWeatherWind HumidityBarometerVisibility
6:00 PM
Mon, Aug 3
88 °FSunny.3 mph25%29.89 "Hg10 mi
5:30 PM86 °FPassing clouds.6 mph27%29.89 "HgN/A
5:00 PM86 °FPassing clouds.7 mph29%29.89 "HgN/A
4:30 PM84 °FPassing clouds.6 mph29%29.92 "HgN/A
4:00 PM84 °FPassing clouds.8 mph29%29.92 "HgN/A
3:30 PM84 °FPassing clouds.8 mph27%29.92 "HgN/A
3:00 PM84 °FPassing clouds.7 mph27%29.92 "HgN/A
2:30 PM82 °FPassing clouds.7 mph28%29.92 "HgN/A
2:00 PM81 °FPassing clouds.7 mph32%29.95 "HgN/A
1:30 PM81 °FSunny.7 mph37%29.95 "Hg10 mi
1:00 PM79 °FPassing clouds.9 mph45%29.95 "HgN/A
12:30 PM79 °FPassing clouds.10 mph45%29.95 "HgN/A
12:00 PM77 °FPassing clouds.9 mph44%29.95 "HgN/A
11:30 AM77 °FSunny.12 mph42%29.95 "Hg10 mi
11:00 AM77 °FPassing clouds.10 mph42%29.95 "HgN/A
10:30 AM75 °FPassing clouds.12 mph44%29.92 "HgN/A
10:00 AM73 °FPassing clouds.10 mph47%29.92 "HgN/A
9:30 AM72 °FSunny.10 mph47%29.92 "Hg10 mi
9:00 AM70 °FSunny.8 mph50%29.92 "Hg10 mi
8:30 AM68 °FSunny.7 mph53%29.92 "Hg10 mi
8:00 AM66 °FSunny.5 mph56%29.89 "Hg10 mi
7:30 AM63 °FSunny.5 mph64%29.89 "Hg10 mi
7:00 AM61 °FClear.3 mph63%29.89 "Hg10 mi
6:00 AM61 °FClear.5 mph63%29.89 "Hg10 mi
5:30 AM61 °FClear.6 mph68%29.89 "Hg10 mi
5:00 AM59 °FClear.5 mph72%29.89 "Hg10 mi
4:30 AM61 °FClear.6 mph68%29.89 "Hg10 mi
4:00 AM61 °FClear.5 mph68%29.92 "Hg10 mi
3:30 AM63 °FClear.5 mph64%29.92 "Hg10 mi
3:00 AM63 °FClear.3 mph64%29.92 "Hg10 mi
2:30 AM63 °FClear.5 mph64%29.92 "Hg10 mi
2:00 AM64 °FClear.3 mph60%29.95 "Hg10 mi
1:30 AM64 °FClear.2 mph56%29.95 "Hg10 mi
1:00 AM66 °FClear.5 mph52%29.95 "Hg10 mi
12:30 AM66 °FClear.6 mph49%29.95 "Hg10 mi
12:00 AM70 °FClear.6 mph40%29.95 "Hg10 mi
11:30 PM
Sun, Aug 2
70 °FClear.7 mph40%29.98 "Hg10 mi
11:00 PM72 °FClear.8 mph38%29.98 "Hg10 mi
10:30 PM72 °FSunny.6 mph38%29.98 "Hg10 mi
10:00 PM73 °FSunny.7 mph33%29.98 "Hg10 mi
9:30 PM75 °FSunny.6 mph31%29.98 "Hg10 mi
9:00 PM75 °FSunny.6 mph31%29.98 "Hg10 mi
8:30 PM77 °FSunny.6 mph32%29.98 "Hg10 mi
8:00 PM77 °FSunny.5 mph30%29.98 "Hg10 mi
7:30 PM79 °FPassing clouds.7 mph24%29.98 "HgN/A
7:00 PM81 °FPassing clouds.6 mph28%30.01 "HgN/A
Weather by CustomWeather, © 2015

See weather overviewHow to use our weather pages